Weather History for KFMH - April, 2013

Change the Weather History Date:

Wednesday, April 24, 2013

  Actual Average Record
Temperature  
Mean Temperature 50 °F -  
Max Temperature 59 °F 55 °F 71 °F (2008)
Min Temperature 41 °F 37 °F 32 °F (2003)
Degree Days  
Heating Degree Days 15    
Moisture  
Dew Point 43 °F    
Average Humidity 85    
Maximum Humidity 100    
Minimum Humidity 63    
Precipitation  
Precipitation 0.02 in - - ()
Sea Level Pressure  
Sea Level Pressure 29.92 in    
Wind  
Wind Speed 17 mph (WNW)    
Max Wind Speed 26 mph    
Max Gust Speed 40 mph    
Visibility 8 miles    
Events Rain    
Averages and records for this station are not official NWS values.
T = Trace of Precipitation, MM = Missing Value Source: NWS Daily Summary

Daily Weather History Graph

Daily Weather History Graph

Search for Another Location

Airport or City:

Trip Planner

Search our weather history database for the weather conditions in past years. The results will help you decide how hot, cold, wet, or windy it might be!

Date:

Astronomy

Apr. 24, 2013 Rise Set
Actual Time 5:48 AM EDT 7:32 PM EDT
Civil Twilight 5:18 AM EDT 8:02 PM EDT
Nautical Twilight 4:42 AM EDT 8:38 PM EDT
Astronomical Twilight 4:04 AM EDT 9:17 PM EDT
Moon 6:32 PM EDT (4/24) 4:50 AM EDT (4/24)
Length of Visible Light 14h 43m
Length of Day
13h 44m
Waxing Gibbous, 98% of the Moon is Illuminated
Apr 24
Waxing Gibbous
Apr 25
Full
May 2
Last Quarter
May 9
New
May 18
First Quarter

Hourly Weather History & Observations

Time (EDT) Temp. Windchill Dew Point Humidity Pressure Visibility Wind Dir Wind Speed Gust Speed Precip Events Conditions
12:15 AM 42.8 °F 35.1 °F 41.0 °F 93% 29.99 in 3.0 mi NNE 16.1 mph 29.9 mph 0.05 in Rain Rain
12:35 AM 42.8 °F 34.3 °F 41.0 °F 93% 29.97 in 3.0 mi North 19.6 mph 32.2 mph 0.16 in Rain Light Rain
12:55 AM 41.0 °F 32.5 °F 41.0 °F 100% 29.96 in 3.0 mi North 17.3 mph 28.8 mph 0.27 in Rain Rain
1:15 AM 41.0 °F 31.6 °F 41.0 °F 100% 29.95 in 3.0 mi North 20.7 mph 34.5 mph 0.06 in Rain Light Rain
1:35 AM 41.0 °F 33.1 °F 41.0 °F 100% 29.93 in 4.0 mi North 15.0 mph 26.5 mph 0.11 in Rain Rain
1:55 AM 41.0 °F 32.5 °F 41.0 °F 100% 29.91 in 4.0 mi North 17.3 mph 32.2 mph 0.14 in Rain Light Rain
2:15 AM 41.0 °F 31.4 °F 41.0 °F 100% 29.89 in 3.0 mi North 21.9 mph 35.7 mph 0.01 in Rain Light Rain
2:35 AM 41.0 °F 31.6 °F 41.0 °F 100% 29.88 in 4.0 mi North 20.7 mph 40.3 mph 0.03 in Rain Light Rain
2:55 AM 41.0 °F 31.1 °F 41.0 °F 100% 29.87 in 4.0 mi North 23.0 mph 31.1 mph 0.03 in Rain Light Rain
3:15 AM 41.0 °F 31.9 °F 41.0 °F 100% 29.85 in 2.0 mi North 19.6 mph 28.8 mph N/A Rain Light Rain
3:35 AM 41.0 °F 33.1 °F 41.0 °F 100% 29.86 in 3.0 mi North 15.0 mph 31.1 mph N/A Rain Light Rain
3:55 AM 41.0 °F 31.9 °F 41.0 °F 100% 29.86 in 6.0 mi North 19.6 mph 28.8 mph N/A   Overcast
4:15 AM 41.0 °F 31.4 °F 41.0 °F 100% 29.85 in 1.8 mi North 21.9 mph 31.1 mph 0.01 in   Overcast
4:35 AM 41.0 °F 32.5 °F 41.0 °F 100% 29.86 in 2.0 mi North 17.3 mph 26.5 mph 0.02 in   Overcast
4:55 AM 41.0 °F 31.6 °F 41.0 °F 100% 29.86 in 2.0 mi North 20.7 mph 29.9 mph 0.03 in   Overcast
5:15 AM 41.0 °F 33.5 °F 41.0 °F 100% 29.87 in 2.5 mi North 13.8 mph 27.6 mph N/A Rain Light Rain
5:35 AM 41.0 °F 31.9 °F 41.0 °F 100% 29.86 in 3.0 mi North 19.6 mph 28.8 mph N/A Rain Light Rain
5:55 AM 42.8 °F 35.4 °F 41.0 °F 93% 29.85 in 5.0 mi NNW 15.0 mph 27.6 mph N/A   Overcast
6:15 AM 42.8 °F 35.8 °F 41.0 °F 93% 29.86 in 7.0 mi North 13.8 mph 26.5 mph N/A   Overcast
6:35 AM 42.8 °F 33.5 °F 41.0 °F 93% 29.87 in 10.0 mi NNW 23.0 mph 31.1 mph N/A   Overcast
6:55 AM 42.8 °F 34.3 °F 41.0 °F 93% 29.88 in 10.0 mi NNW 19.6 mph 31.1 mph N/A   Overcast
7:15 AM 42.8 °F 35.8 °F 41.0 °F 93% 29.90 in 10.0 mi NW 13.8 mph 21.9 mph N/A   Overcast
7:35 AM 42.8 °F 35.4 °F 41.0 °F 93% 29.90 in 9.0 mi NNW 15.0 mph 25.3 mph N/A   Overcast
7:55 AM 42.8 °F 35.8 °F 41.0 °F 93% 29.91 in 3.0 mi NNW 13.8 mph 24.2 mph N/A   Overcast
8:15 AM 42.8 °F 35.4 °F 41.0 °F 93% 29.92 in 2.0 mi NNW 15.0 mph 24.2 mph N/A   Overcast
8:35 AM 44.6 °F 39.2 °F 41.0 °F 87% 29.92 in 5.0 mi NNW 10.4 mph - N/A   Overcast
8:55 AM 44.6 °F 37.4 °F 42.8 °F 93% 29.92 in 10.0 mi NNW 16.1 mph 23.0 mph N/A   Overcast
9:15 AM 44.6 °F 39.2 °F 42.8 °F 93% 29.93 in 10.0 mi NNW 10.4 mph 17.3 mph N/A   Overcast
9:35 AM 46.4 °F 40.7 °F 42.8 °F 87% 29.94 in 10.0 mi NW 12.7 mph 20.7 mph N/A   Overcast
9:55 AM 46.4 °F 40.4 °F 42.8 °F 87% 29.94 in 10.0 mi NW 13.8 mph 19.6 mph N/A   Overcast
10:15 AM 46.4 °F 40.7 °F 42.8 °F 87% 29.93 in 10.0 mi NW 12.7 mph 18.4 mph N/A   Overcast
10:35 AM 46.4 °F 40.4 °F 44.6 °F 93% 29.94 in 10.0 mi NW 13.8 mph 19.6 mph N/A   Overcast
10:55 AM 48.2 °F - 44.6 °F 87% 29.93 in 10.0 mi NW 11.5 mph 19.6 mph N/A   Unknown
11:15 AM 50.0 °F - 44.6 °F 82% 29.93 in 10.0 mi NW 9.2 mph 19.6 mph N/A   Unknown
11:35 AM 50.0 °F - 44.6 °F 82% 29.93 in 10.0 mi NW 10.4 mph - N/A   Unknown
11:55 AM 51.8 °F - 46.4 °F 82% 29.94 in 10.0 mi WNW 11.5 mph - N/A   Unknown
12:15 PM 53.6 °F - 46.4 °F 77% 29.94 in 10.0 mi West 11.5 mph 17.3 mph N/A   Unknown
12:35 PM 53.6 °F - 46.4 °F 77% 29.94 in 10.0 mi WSW 13.8 mph - N/A   Unknown
12:55 PM 55.4 °F - 46.4 °F 72% 29.93 in 10.0 mi West 15.0 mph - N/A   Unknown
1:15 PM 55.4 °F - 46.4 °F 72% 29.93 in 10.0 mi WSW 15.0 mph - N/A   Unknown
1:35 PM 57.2 °F - 46.4 °F 67% 29.93 in 10.0 mi West 10.4 mph - N/A   Unknown
1:55 PM 57.2 °F - 46.4 °F 67% 29.92 in 10.0 mi WSW 11.5 mph - N/A   Unknown
2:15 PM 57.2 °F - 46.4 °F 67% 29.92 in 10.0 mi WSW 12.7 mph - N/A   Unknown
2:35 PM 59.0 °F - 46.4 °F 63% 29.91 in 10.0 mi SW 12.7 mph - N/A   Clear
2:55 PM 57.2 °F - 44.6 °F 63% 29.90 in 10.0 mi WSW 13.8 mph - N/A   Clear
3:15 PM 57.2 °F - 44.6 °F 63% 29.91 in 10.0 mi SW 18.4 mph 21.9 mph N/A   Clear
3:35 PM 57.2 °F - 44.6 °F 63% 29.90 in 10.0 mi SW 16.1 mph 25.3 mph N/A   Clear
3:55 PM 57.2 °F - 44.6 °F 63% 29.91 in 10.0 mi SW 17.3 mph 23.0 mph N/A   Clear
4:15 PM 57.2 °F - 44.6 °F 63% 29.91 in 10.0 mi SW 19.6 mph 25.3 mph N/A   Clear
4:55 PM 55.4 °F - 44.6 °F 67% 29.92 in 10.0 mi WSW 12.7 mph 24.2 mph N/A   Clear
5:15 PM 55.4 °F - 42.8 °F 63% 29.92 in 10.0 mi WSW 12.7 mph 25.3 mph N/A   Clear
5:35 PM 53.6 °F - 42.8 °F 67% 29.92 in 10.0 mi SW 16.1 mph 28.8 mph N/A   Clear
5:55 PM 53.6 °F - 42.8 °F 67% 29.92 in 10.0 mi SW 12.7 mph 21.9 mph N/A   Clear
6:15 PM 53.6 °F - 42.8 °F 67% 29.92 in 10.0 mi SW 13.8 mph 26.5 mph N/A   Clear
6:35 PM 50.0 °F - 42.8 °F 76% 29.93 in 10.0 mi SW 18.4 mph 24.2 mph N/A   Clear
6:55 PM 50.0 °F - 42.8 °F 76% 29.93 in 10.0 mi SW 21.9 mph 25.3 mph N/A   Clear
7:15 PM 48.2 °F - 42.8 °F 82% 29.93 in 10.0 mi SW 15.0 mph 24.2 mph N/A   Clear
7:35 PM 48.2 °F - 42.8 °F 82% 29.94 in 10.0 mi SW 15.0 mph 20.7 mph N/A   Clear
7:55 PM 48.2 °F - 42.8 °F 82% 29.94 in 10.0 mi SW 17.3 mph 21.9 mph N/A   Clear
8:15 PM 48.2 °F - 42.8 °F 82% 29.94 in 10.0 mi SSW 21.9 mph 26.5 mph N/A   Clear
8:35 PM 48.2 °F - 44.6 °F 87% 29.94 in 10.0 mi SW 19.6 mph 27.6 mph N/A   Clear
8:55 PM 48.2 °F - 46.4 °F 93% 29.95 in 10.0 mi SW 16.1 mph 28.8 mph N/A   Partly Cloudy
9:15 PM 50.0 °F - 46.4 °F 87% 29.95 in 10.0 mi SW 18.4 mph 25.3 mph N/A   Mostly Cloudy
9:35 PM 50.0 °F - 48.2 °F 94% 29.96 in 10.0 mi SW 17.3 mph 21.9 mph N/A   Overcast
9:55 PM 50.0 °F - 48.2 °F 94% 29.96 in 10.0 mi SW 15.0 mph 26.5 mph N/A   Overcast
11:15 PM 50.0 °F - 48.2 °F 94% 29.97 in 5.0 mi WSW 15.0 mph 23.0 mph N/A   Overcast
11:35 PM 50.0 °F - 48.2 °F 94% 29.97 in 5.0 mi SSW 16.1 mph 24.2 mph N/A   Overcast
11:55 PM 50.0 °F - 48.2 °F 94% 29.96 in 6.0 mi SSW 18.4 mph 24.2 mph N/A   Overcast